Find OV2-5

NORAD ID: 3428 Int'l Des: 1968-081 Owner: SAMSO Country: US operational
MEOCIRCULAR

Live-Position

3D-Globus wird geladen...

Über OV2-5

Beschreibung wird geladen...

Nächste Überflüge

Passes for default location (London). Set your location on the main map for personalized predictions.

Höhenverlauf

Loading altitude history...

Zweizeiliger Elementsatz

1 03428U 68081A 26104.61668019 -.00000039 00000-0 00000-0 0 9993
2 03428 1.8747 48.8996 0080854 284.2931 131.5819 1.01559664120417
Epoch: 14. Apr. 2026 • Age: 6 hours

Aktueller Status

Höhe 35649.2 km
Geschwindigkeit 3.07 km/s
Subsatellitenpunkt 0.83°N, 40.53°E
Typ other

Most Searched